| time (UTC) | temp F | wind direction | speed MPH | gust MPH | rain 1hr in | rain 24hr in | rain mn in | humidity % | barometer mb |
| 20260905131503 | 66 | 286 | 8.0 | 17.0 | 0.00 | 0.06 | 0.00 | 70 | 1021.9 |
| 20260905131003 | 66 | 286 | 10.0 | 17.0 | 0.00 | 0.06 | 0.00 | 69 | 1021.8 |
| 20260905130503 | 66 | 289 | 9.0 | 17.0 | 0.00 | 0.06 | 0.00 | 69 | 1021.8 |
| 20260905130003 | 66 | 291 | 8.0 | 17.0 | 0.00 | 0.06 | 0.00 | 69 | 1021.8 |
| 20260905125503 | 66 | 288 | 7.0 | 15.0 | 0.00 | 0.06 | 0.00 | 69 | 1021.8 |
| 20260905125003 | 66 | 285 | 7.0 | 15.0 | 0.00 | 0.07 | 0.00 | 69 | 1021.7 |
| 20260905124503 | 66 | 288 | 7.0 | 16.0 | 0.00 | 0.07 | 0.00 | 70 | 1021.7 |
| 20260905124003 | 66 | 281 | 7.0 | 20.0 | 0.00 | 0.08 | 0.00 | 71 | 1021.6 |
| 20260905123503 | 66 | 278 | 8.0 | 20.0 | 0.00 | 0.09 | 0.00 | 72 | 1021.5 |
| 20260905123003 | 66 | 291 | 7.0 | 13.0 | 0.00 | 0.10 | 0.00 | 72 | 1021.5 |
| 20260905122503 | 65 | 290 | 8.0 | 18.0 | 0.00 | 0.11 | 0.00 | 72 | 1021.4 |
| 20260905122217 | 65 | 290 | 9.0 | 18.0 | 0.00 | 0.12 | 0.00 | 72 | 1021.4 |
| 20260905121503 | 65 | 301 | 8.0 | 16.0 | 0.00 | 0.13 | 0.00 | 73 | 1021.4 |
| 20260905121003 | 65 | 301 | 7.0 | 14.0 | 0.00 | 0.13 | 0.00 | 73 | 1021.4 |
| 20260905120503 | 65 | 303 | 9.0 | 20.0 | 0.00 | 0.13 | 0.00 | 73 | 1021.3 |
| 20260905120003 | 65 | 304 | 10.0 | 20.0 | 0.00 | 0.13 | 0.00 | 72 | 1021.3 |
| 20260905115503 | 66 | 298 | 9.0 | 19.0 | 0.00 | 0.13 | 0.00 | 71 | 1021.2 |
| 20260905115217 | 66 | 294 | 9.0 | 17.0 | 0.00 | 0.13 | 0.00 | 70 | 1021.2 |
| 20260905114503 | 67 | 287 | 9.0 | 17.0 | 0.00 | 0.13 | 0.00 | 69 | 1021.0 |
| 20260905114217 | 67 | 287 | 8.0 | 17.0 | 0.00 | 0.13 | 0.00 | 69 | 1021.0 |
| 20260905113503 | 67 | 295 | 6.0 | 13.0 | 0.00 | 0.13 | 0.00 | 70 | 1020.9 |
| 20260905113003 | 67 | 295 | 6.0 | 14.0 | 0.00 | 0.13 | 0.00 | 68 | 1020.8 |
| 20260905112503 | 68 | 288 | 7.0 | 18.0 | 0.00 | 0.14 | 0.00 | 67 | 1020.7 |
| 20260905112216 | 68 | 282 | 8.0 | 18.0 | 0.00 | 0.14 | 0.00 | 67 | 1020.8 |
| 20260905111503 | 68 | 273 | 8.0 | 18.0 | 0.00 | 0.16 | 0.00 | 67 | 1020.7 |
| 20260905111003 | 68 | 275 | 7.0 | 16.0 | 0.00 | 0.17 | 0.00 | 67 | 1020.6 |
| 20260905110503 | 68 | 264 | 6.0 | 16.0 | 0.00 | 0.17 | 0.00 | 66 | 1020.4 |
| 20260905110003 | 69 | 244 | 7.0 | 15.0 | 0.00 | 0.17 | 0.00 | 67 | 1020.2 |
| 20260905105503 | 69 | 244 | 7.0 | 16.0 | 0.00 | 0.17 | 0.00 | 67 | 1020.2 |
| 20260905105004 | 68 | 267 | 7.0 | 16.0 | 0.00 | 0.23 | 0.00 | 69 | 1020.2 |
| 20260905104503 | 67 | 279 | 9.0 | 17.0 | 0.00 | 0.23 | 0.00 | 70 | 1020.2 |
| 20260905104003 | 66 | 278 | 9.0 | 17.0 | 0.00 | 0.23 | 0.00 | 70 | 1020.2 |
| 20260905103503 | 66 | 283 | 9.0 | 20.0 | 0.00 | 0.23 | 0.00 | 71 | 1020.1 |
| 20260905103218 | 66 | 283 | 9.0 | 20.0 | 0.00 | 0.23 | 0.00 | 70 | 1020.1 |
| 20260905102503 | 66 | 279 | 9.0 | 22.0 | 0.00 | 0.23 | 0.00 | 73 | 1020.0 |
| 20260905102003 | 66 | 276 | 8.0 | 16.0 | 0.00 | 0.23 | 0.00 | 76 | 1019.9 |
| 20260905101503 | 65 | 272 | 8.0 | 18.0 | 0.00 | 0.23 | 0.00 | 76 | 1020.0 |
| 20260905101003 | 64 | 273 | 7.0 | 18.0 | 0.00 | 0.23 | 0.00 | 78 | 1019.8 |
| 20260905100503 | 64 | 279 | 7.0 | 16.0 | 0.00 | 0.23 | 0.00 | 81 | 1019.8 |
| 20260905100003 | 64 | 281 | 7.0 | 16.0 | 0.00 | 0.23 | 0.00 | 80 | 1019.9 |
| 20260905095717 | 64 | 290 | 7.0 | 16.0 | 0.00 | 0.23 | 0.00 | 80 | 1019.7 |
| 20260905095003 | 65 | 292 | 7.0 | 16.0 | 0.00 | 0.23 | 0.00 | 78 | 1019.7 |
| 20260905094503 | 65 | 281 | 7.0 | 15.0 | 0.00 | 0.23 | 0.00 | 76 | 1019.5 |
| 20260905094218 | 65 | 275 | 8.0 | 15.0 | 0.00 | 0.23 | 0.00 | 76 | 1019.5 |
| 20260905093503 | 65 | 271 | 8.0 | 17.0 | 0.00 | 0.23 | 0.00 | 75 | 1019.3 |
| 20260905093003 | 66 | 276 | 6.0 | 17.0 | 0.00 | 0.23 | 0.00 | 75 | 1019.2 |
| 20260905092503 | 66 | 271 | 6.0 | 15.0 | 0.00 | 0.23 | 0.00 | 74 | 1019.1 |
| 20260905092003 | 66 | 257 | 7.0 | 15.0 | 0.00 | 0.23 | 0.00 | 72 | 1019.1 |
| 20260905091717 | 67 | 252 | 6.0 | 12.0 | 0.00 | 0.23 | 0.00 | 73 | 1019.1 |
| 20260905091003 | 68 | 245 | 6.0 | 17.0 | 0.00 | 0.23 | 0.00 | 72 | 1019.0 |
| 20260905090503 | 68 | 240 | 6.0 | 17.0 | 0.00 | 0.23 | 0.00 | 73 | 1019.0 |
| 20260905090218 | 68 | 251 | 6.0 | 17.0 | 0.00 | 0.23 | 0.00 | 74 | 1019.0 |
| 20260905085503 | 67 | 263 | 6.0 | 16.0 | 0.00 | 0.23 | 0.00 | 77 | 1019.0 |
| 20260905085003 | 66 | 263 | 7.0 | 16.0 | 0.00 | 0.23 | 0.00 | 79 | 1018.9 |
| 20260905084716 | 66 | 264 | 7.0 | 16.0 | 0.00 | 0.24 | 0.00 | 80 | 1018.8 |
| 20260905084003 | 66 | 268 | 5.0 | 13.0 | 0.00 | 0.24 | 0.00 | 80 | 1018.8 |
| 20260905083503 | 66 | 273 | 5.0 | 10.0 | 0.00 | 0.24 | 0.00 | 81 | 1018.9 |
| 20260905083003 | 65 | 268 | 5.0 | 12.0 | 0.00 | 0.24 | 0.00 | 81 | 1018.7 |
| 20260905082503 | 65 | 255 | 5.0 | 13.0 | 0.00 | 0.24 | 0.00 | 80 | 1018.5 |
| 20260905082003 | 65 | 246 | 6.0 | 17.0 | 0.00 | 0.24 | 0.00 | 80 | 1018.6 |
| 20260905081503 | 65 | 252 | 7.0 | 17.0 | 0.00 | 0.24 | 0.00 | 80 | 1018.5 |
| 20260905081003 | 65 | 259 | 6.0 | 13.0 | 0.00 | 0.24 | 0.00 | 80 | 1018.4 |
| 20260905080503 | 66 | 250 | 7.0 | 17.0 | 0.00 | 0.24 | 0.00 | 80 | 1018.4 |
| 20260905080217 | 66 | 250 | 7.0 | 17.0 | 0.00 | 0.24 | 0.00 | 80 | 1018.3 |
| 20260905075503 | 65 | 242 | 6.0 | 14.0 | 0.00 | 0.24 | 0.00 | 81 | 1018.1 |
| 20260905075003 | 65 | 236 | 5.0 | 14.0 | 0.00 | 0.24 | 0.00 | 83 | 1018.1 |
| 20260905074503 | 64 | 235 | 6.0 | 13.0 | 0.00 | 0.24 | 0.00 | 83 | 1018.1 |
| 20260905074003 | 64 | 230 | 5.0 | 13.0 | 0.00 | 0.24 | 0.00 | 84 | 1018.1 |
| 20260905073503 | 64 | 227 | 5.0 | 13.0 | 0.00 | 0.24 | 0.00 | 84 | 1018.1 |
| 20260905073003 | 63 | 231 | 5.0 | 14.0 | 0.00 | 0.24 | 0.00 | 84 | 1018.1 |
| 20260905072503 | 63 | 229 | 5.0 | 14.0 | 0.00 | 0.24 | 0.00 | 84 | 1017.9 |
| 20260905072003 | 63 | 226 | 4.0 | 12.0 | 0.00 | 0.24 | 0.00 | 86 | 1017.9 |
| 20260905071503 | 62 | 227 | 4.0 | 11.0 | 0.00 | 0.24 | 0.00 | 87 | 1017.9 |
| 20260905071003 | 62 | 227 | 4.0 | 11.0 | 0.00 | 0.24 | 0.00 | 87 | 1017.8 |
| 20260905070504 | 61 | 226 | 4.0 | 10.0 | 0.00 | 0.24 | 0.00 | 88 | 1017.8 |
| 20260905070003 | 61 | 232 | 4.0 | 11.0 | 0.00 | 0.24 | 0.00 | 89 | 1017.8 |
| 20260905065503 | 60 | 229 | 4.0 | 11.0 | 0.00 | 0.24 | 0.00 | 90 | 1017.8 |
| 20260905065003 | 60 | 231 | 4.0 | 10.0 | 0.00 | 0.24 | 0.00 | 90 | 1017.9 |
| 20260905064718 | 60 | 238 | 4.0 | 9.0 | 0.00 | 0.24 | 0.00 | 91 | 1017.7 |
| 20260905064217 | 59 | 235 | 3.0 | 7.0 | 0.00 | 0.24 | 0.00 | 92 | 1017.8 |
| 20260905063718 | 58 | 215 | 3.0 | 9.0 | 0.00 | 0.24 | 0.00 | 92 | 1017.7 |
| 20260905063003 | 58 | 193 | 2.0 | 9.0 | 0.00 | 0.24 | 0.00 | 93 | 1017.7 |
| 20260905062503 | 57 | 204 | 2.0 | 7.0 | 0.00 | 0.24 | 0.00 | 93 | 1017.7 |
| 20260905062003 | 57 | 208 | 2.0 | 7.0 | 0.00 | 0.24 | 0.00 | 93 | 1017.6 |
| 20260905061503 | 57 | 202 | 3.0 | 6.0 | 0.00 | 0.24 | 0.00 | 93 | 1017.6 |
| 20260905061216 | 56 | 198 | 3.0 | 6.0 | 0.00 | 0.24 | 0.00 | 93 | 1017.6 |
| 20260905060503 | 56 | 214 | 3.0 | 9.0 | 0.00 | 0.24 | 0.00 | 93 | 1017.5 |
| 20260905060003 | 56 | 208 | 2.0 | 8.0 | 0.00 | 0.24 | 0.00 | 93 | 1017.4 |
| 20260905055503 | 56 | 186 | 2.0 | 7.0 | 0.00 | 0.24 | 0.00 | 93 | 1017.3 |
| 20260905055003 | 56 | 183 | 3.0 | 7.0 | 0.00 | 0.24 | 0.00 | 93 | 1017.4 |
| 20260905054503 | 56 | 189 | 2.0 | 7.0 | 0.00 | 0.24 | 0.00 | 93 | 1017.3 |
| 20260905054003 | 55 | 181 | 2.0 | 7.0 | 0.00 | 0.24 | 0.00 | 93 | 1017.2 |
| 20260905053503 | 55 | 174 | 2.0 | 7.0 | 0.00 | 0.24 | 0.00 | 93 | 1017.2 |
| 20260905053003 | 55 | 171 | 2.0 | 6.0 | 0.00 | 0.24 | 0.00 | 93 | 1017.1 |
| 20260905052719 | 55 | 175 | 2.0 | 5.0 | 0.00 | 0.24 | 0.00 | 93 | 1017.0 |
| 20260905052216 | 55 | 180 | 2.0 | 6.0 | 0.00 | 0.24 | 0.00 | 93 | 1017.0 |
| 20260905051503 | 55 | 170 | 2.0 | 5.0 | 0.00 | 0.24 | 0.00 | 93 | 1016.9 |
| 20260905051218 | 55 | 174 | 2.0 | 5.0 | 0.00 | 0.24 | 0.00 | 93 | 1016.9 |
| 20260905050503 | 55 | 177 | 2.0 | 5.0 | 0.00 | 0.24 | 0.00 | 92 | 1016.8 |
| 20260905050003 | 55 | 170 | 2.0 | 5.0 | 0.00 | 0.24 | 0.00 | 92 | 1016.9 |
| 20260905045503 | 55 | 170 | 2.0 | 5.0 | 0.00 | 0.24 | 0.00 | 92 | 1016.9 |
| 20260905045003 | 55 | 176 | 1.0 | 5.0 | 0.00 | 0.24 | 0.00 | 92 | 1016.9 |
| 20260905044717 | 55 | 182 | 1.0 | 5.0 | 0.00 | 0.24 | 0.00 | 92 | 1016.9 |
| 20260905044218 | 55 | 172 | 2.0 | 6.0 | 0.00 | 0.24 | 0.00 | 92 | 1016.9 |
| 20260905043503 | 55 | 168 | 2.0 | 5.0 | 0.00 | 0.24 | 0.00 | 92 | 1016.8 |
| 20260905043003 | 55 | 171 | 2.0 | 6.0 | 0.00 | 0.24 | 0.00 | 92 | 1016.7 |
| 20260905042503 | 55 | 184 | 2.0 | 6.0 | 0.00 | 0.24 | 0.00 | 92 | 1016.6 |
| 20260905042003 | 55 | 198 | 2.0 | 5.0 | 0.00 | 0.24 | 0.00 | 92 | 1016.6 |
| 20260905041717 | 55 | 200 | 2.0 | 4.0 | 0.00 | 0.24 | 0.00 | 92 | 1016.5 |
| 20260905041003 | 55 | 194 | 1.0 | 4.0 | 0.00 | 0.24 | 0.00 | 92 | 1016.4 |
| 20260905040503 | 55 | 201 | 1.0 | 4.0 | 0.00 | 0.24 | 0.00 | 92 | 1016.5 |
| 20260905040003 | 55 | 219 | 1.0 | 4.0 | 0.00 | 0.24 | 0.00 | 92 | 1016.4 |
| 20260905035503 | 55 | 233 | 1.0 | 5.0 | 0.00 | 0.24 | 0.00 | 92 | 1016.4 |
| 20260905035003 | 55 | 232 | 2.0 | 5.0 | 0.00 | 0.24 | 0.00 | 91 | 1016.3 |
| 20260905034717 | 55 | 229 | 2.0 | 5.0 | 0.00 | 0.24 | 0.00 | 91 | 1016.3 |
| 20260905034003 | 55 | 203 | 1.0 | 5.0 | 0.00 | 0.24 | 0.00 | 92 | 1016.3 |
| 20260905033503 | 56 | 200 | 2.0 | 7.0 | 0.00 | 0.24 | 0.00 | 92 | 1016.3 |
| 20260905033003 | 56 | 202 | 1.0 | 7.0 | 0.00 | 0.24 | 0.00 | 91 | 1016.3 |
| 20260905032503 | 56 | 194 | 0.0 | 4.0 | 0.00 | 0.24 | 0.00 | 91 | 1016.3 |
| 20260905032003 | 56 | 169 | 0.0 | 2.0 | 0.00 | 0.24 | 0.00 | 91 | 1016.3 |
| 20260905031716 | 56 | 185 | 1.0 | 2.0 | 0.00 | 0.24 | 0.00 | 91 | 1016.3 |
| 20260905031003 | 56 | 207 | 1.0 | 3.0 | 0.00 | 0.24 | 0.00 | 91 | 1016.2 |
| 20260905030716 | 56 | 213 | 1.0 | 4.0 | 0.00 | 0.24 | 0.00 | 91 | 1016.1 |
| 20260905030003 | 56 | 184 | 1.0 | 4.0 | 0.00 | 0.24 | 0.00 | 91 | 1016.1 |
| 20260905025503 | 56 | 177 | 1.0 | 5.0 | 0.00 | 0.24 | 0.00 | 91 | 1016.1 |
| 20260905025003 | 56 | 187 | 2.0 | 5.0 | 0.00 | 0.24 | 0.00 | 91 | 1016.0 |
| 20260905024503 | 56 | 195 | 2.0 | 4.0 | 0.00 | 0.24 | 0.00 | 91 | 1016.0 |
| 20260905024218 | 56 | 200 | 1.0 | 5.0 | 0.00 | 0.24 | 0.00 | 91 | 1016.1 |
| 20260905023503 | 56 | 194 | 1.0 | 5.0 | 0.00 | 0.24 | 0.00 | 91 | 1016.0 |
| 20260905023003 | 56 | 174 | 1.0 | 5.0 | 0.00 | 0.24 | 0.00 | 91 | 1016.1 |
| 20260905022503 | 56 | 175 | 1.0 | 5.0 | 0.00 | 0.24 | 0.00 | 91 | 1016.0 |
| 20260905022003 | 56 | 173 | 2.0 | 5.0 | 0.00 | 0.24 | 0.00 | 90 | 1016.0 |
| 20260905021503 | 56 | 170 | 2.0 | 5.0 | 0.00 | 0.24 | 0.00 | 90 | 1015.9 |
| 20260905021003 | 56 | 178 | 2.0 | 4.0 | 0.00 | 0.24 | 0.00 | 90 | 1016.0 |
| 20260905020503 | 56 | 178 | 2.0 | 3.0 | 0.00 | 0.24 | 0.00 | 90 | 1016.0 |
| 20260905020003 | 56 | 171 | 2.0 | 5.0 | 0.00 | 0.24 | 0.00 | 90 | 1015.9 |
| 20260905015503 | 56 | 172 | 2.0 | 5.0 | 0.00 | 0.24 | 0.00 | 90 | 1015.9 |
| 20260905015003 | 56 | 179 | 2.0 | 5.0 | 0.00 | 0.24 | 0.00 | 90 | 1015.8 |
| 20260905014503 | 57 | 177 | 2.0 | 4.0 | 0.00 | 0.24 | 0.00 | 89 | 1015.8 |
| 20260905014003 | 57 | 183 | 2.0 | 4.0 | 0.00 | 0.24 | 0.00 | 89 | 1015.8 |
| 20260905013503 | 57 | 195 | 1.0 | 3.0 | 0.00 | 0.24 | 0.00 | 89 | 1015.7 |
| 20260905013217 | 57 | 190 | 1.0 | 3.0 | 0.00 | 0.24 | 0.00 | 89 | 1015.7 |
| 20260905012503 | 57 | 192 | 1.0 | 5.0 | 0.00 | 0.24 | 0.00 | 89 | 1015.8 |
| 20260905012217 | 57 | 193 | 1.0 | 5.0 | 0.00 | 0.24 | 0.00 | 88 | 1015.7 |
| 20260905011503 | 57 | 191 | 2.0 | 4.0 | 0.00 | 0.24 | 0.00 | 89 | 1015.8 |
| 20260905011003 | 58 | 182 | 2.0 | 4.0 | 0.00 | 0.24 | 0.00 | 88 | 1015.7 |
| 20260905010503 | 58 | 194 | 1.0 | 4.0 | 0.00 | 0.24 | 0.00 | 88 | 1015.7 |
| 20260905010003 | 58 | 231 | 1.0 | 4.0 | 0.00 | 0.24 | 0.00 | 88 | 1015.7 |
| 20260905005503 | 58 | 236 | 1.0 | 4.0 | 0.00 | 0.24 | 0.00 | 88 | 1015.7 |
| 20260905005003 | 58 | 217 | 1.0 | 4.0 | 0.00 | 0.24 | 0.00 | 88 | 1015.8 |
| 20260905004717 | 58 | 216 | 1.0 | 4.0 | 0.00 | 0.24 | 0.00 | 88 | 1015.7 |
| 20260905004003 | 58 | 225 | 2.0 | 4.0 | 0.00 | 0.24 | 0.00 | 88 | 1015.7 |
| 20260905003717 | 58 | 225 | 2.0 | 4.0 | 0.00 | 0.24 | 0.00 | 88 | 1015.6 |
| 20260905003216 | 58 | 226 | 2.0 | 4.0 | 0.00 | 0.24 | 0.00 | 88 | 1015.8 |
| 20260905002503 | 58 | 216 | 2.0 | 4.0 | 0.00 | 0.24 | 0.00 | 88 | 1015.8 |
| 20260905002003 | 58 | 217 | 2.0 | 6.0 | 0.00 | 0.24 | 0.00 | 88 | 1015.7 |
| 20260905001503 | 58 | 226 | 2.0 | 6.0 | 0.00 | 0.24 | 0.00 | 88 | 1015.7 |
| 20260905001003 | 58 | 219 | 2.0 | 5.0 | 0.00 | 0.24 | 0.00 | 88 | 1015.7 |
| 20260905000717 | 58 | 218 | 2.0 | 6.0 | 0.00 | 0.24 | 0.00 | 88 | 1015.6 |
| 20260905000003 | 58 | 226 | 2.0 | 6.0 | 0.00 | 0.24 | 0.00 | 87 | 1015.6 |
| 20260904235503 | 58 | 228 | 2.0 | 7.0 | 0.00 | 0.24 | 0.00 | 87 | 1015.6 |
| 20260904235003 | 58 | 230 | 3.0 | 7.0 | 0.00 | 0.24 | 0.00 | 88 | 1015.6 |
| 20260904234503 | 58 | 231 | 3.0 | 8.0 | 0.00 | 0.24 | 0.00 | 88 | 1015.5 |
| 20260904234003 | 58 | 226 | 2.0 | 8.0 | 0.00 | 0.24 | 0.00 | 88 | 1015.5 |
| 20260904233503 | 58 | 217 | 2.0 | 5.0 | 0.00 | 0.24 | 0.00 | 88 | 1015.4 |
| 20260904233218 | 58 | 212 | 2.0 | 5.0 | 0.00 | 0.24 | 0.00 | 88 | 1015.4 |
| 20260904232503 | 58 | 229 | 2.0 | 8.0 | 0.00 | 0.24 | 0.00 | 87 | 1015.4 |
| 20260904232003 | 58 | 232 | 3.0 | 8.0 | 0.00 | 0.24 | 0.00 | 88 | 1015.4 |
| 20260904231503 | 58 | 224 | 3.0 | 8.0 | 0.00 | 0.24 | 0.00 | 88 | 1015.4 |
| 20260904231003 | 58 | 224 | 2.0 | 7.0 | 0.00 | 0.24 | 0.00 | 87 | 1015.4 |
| 20260904230503 | 58 | 228 | 2.0 | 7.0 | 0.00 | 0.24 | 0.00 | 87 | 1015.3 |
| 20260904230003 | 59 | 227 | 3.0 | 7.0 | 0.00 | 0.24 | 0.00 | 87 | 1015.3 |
| 20260904225503 | 59 | 228 | 3.0 | 8.0 | 0.00 | 0.24 | 0.00 | 87 | 1015.3 |
| 20260904225003 | 59 | 232 | 3.0 | 8.0 | 0.00 | 0.24 | 0.00 | 87 | 1015.3 |
| 20260904224503 | 59 | 229 | 3.0 | 7.0 | 0.00 | 0.24 | 0.00 | 87 | 1015.2 |
| 20260904224003 | 59 | 225 | 3.0 | 9.0 | 0.00 | 0.24 | 0.00 | 87 | 1015.3 |
| 20260904223503 | 59 | 227 | 3.0 | 9.0 | 0.00 | 0.24 | 0.00 | 87 | 1015.2 |
| 20260904223218 | 59 | 225 | 3.0 | 9.0 | 0.00 | 0.24 | 0.00 | 87 | 1015.3 |
| 20260904222503 | 59 | 231 | 3.0 | 9.0 | 0.00 | 0.24 | 0.00 | 86 | 1015.0 |
| 20260904222003 | 60 | 231 | 3.0 | 8.0 | 0.00 | 0.24 | 0.00 | 86 | 1015.0 |
| 20260904221503 | 60 | 231 | 3.0 | 9.0 | 0.00 | 0.24 | 0.00 | 87 | 1014.9 |
| 20260904221003 | 60 | 235 | 4.0 | 9.0 | 0.00 | 0.24 | 0.00 | 86 | 1015.0 |
| 20260904220503 | 60 | 232 | 4.0 | 8.0 | 0.00 | 0.24 | 0.00 | 86 | 1014.9 |
| 20260904220005 | 60 | 232 | 4.0 | 8.0 | 0.00 | 0.24 | 0.00 | 87 | 1014.7 |
| 20260904215503 | 60 | 231 | 3.0 | 8.0 | 0.00 | 0.24 | 0.24 | 87 | 1014.8 |
| 20260904215217 | 60 | 231 | 3.0 | 5.0 | 0.00 | 0.24 | 0.24 | 86 | 1014.7 |
| 20260904214503 | 60 | 234 | 3.0 | 6.0 | 0.00 | 0.24 | 0.24 | 86 | 1014.7 |
| 20260904214003 | 60 | 232 | 3.0 | 7.0 | 0.00 | 0.24 | 0.24 | 86 | 1014.7 |
| 20260904213503 | 60 | 234 | 3.0 | 9.0 | 0.00 | 0.24 | 0.24 | 86 | 1014.6 |
| 20260904213217 | 60 | 238 | 3.0 | 9.0 | 0.00 | 0.24 | 0.24 | 86 | 1014.7 |
| 20260904212503 | 61 | 235 | 3.0 | 7.0 | 0.00 | 0.24 | 0.24 | 86 | 1014.6 |
| 20260904212003 | 61 | 234 | 3.0 | 7.0 | 0.00 | 0.24 | 0.24 | 86 | 1014.5 |
| 20260904211503 | 61 | 236 | 2.0 | 6.0 | 0.00 | 0.24 | 0.24 | 86 | 1014.6 |
| 20260904211003 | 61 | 234 | 2.0 | 6.0 | 0.00 | 0.24 | 0.24 | 86 | 1014.6 |
| 20260904210503 | 61 | 235 | 2.0 | 6.0 | 0.00 | 0.24 | 0.24 | 86 | 1014.7 |
| 20260904210003 | 61 | 244 | 2.0 | 6.0 | 0.00 | 0.24 | 0.24 | 87 | 1014.6 |
| 20260904205503 | 61 | 247 | 3.0 | 6.0 | 0.00 | 0.24 | 0.24 | 87 | 1014.7 |
| 20260904205003 | 61 | 241 | 3.0 | 7.0 | 0.00 | 0.24 | 0.24 | 87 | 1014.6 |
| 20260904204503 | 61 | 233 | 3.0 | 7.0 | 0.00 | 0.24 | 0.24 | 88 | 1014.5 |
| 20260904204003 | 62 | 227 | 2.0 | 6.0 | 0.00 | 0.24 | 0.24 | 88 | 1014.4 |
| 20260904203503 | 62 | 227 | 3.0 | 5.0 | 0.00 | 0.24 | 0.24 | 88 | 1014.6 |
| 20260904203217 | 62 | 230 | 3.0 | 5.0 | 0.00 | 0.24 | 0.24 | 88 | 1014.6 |
| 20260904202503 | 62 | 228 | 2.0 | 6.0 | 0.00 | 0.24 | 0.24 | 88 | 1014.4 |
| 20260904202003 | 62 | 226 | 2.0 | 6.0 | 0.00 | 0.24 | 0.24 | 88 | 1014.3 |
| 20260904201718 | 62 | 224 | 2.0 | 5.0 | 0.00 | 0.24 | 0.24 | 87 | 1014.3 |
| 20260904201217 | 63 | 227 | 2.0 | 7.0 | 0.00 | 0.24 | 0.24 | 87 | 1014.2 |
| 20260904200503 | 63 | 246 | 2.0 | 7.0 | 0.00 | 0.24 | 0.24 | 87 | 1014.3 |
| 20260904200003 | 63 | 252 | 2.0 | 7.0 | 0.00 | 0.24 | 0.24 | 86 | 1014.2 |
| 20260904195503 | 63 | 253 | 2.0 | 7.0 | 0.00 | 0.24 | 0.24 | 86 | 1014.2 |
| 20260904195003 | 63 | 260 | 3.0 | 10.0 | 0.00 | 0.24 | 0.24 | 86 | 1014.1 |
| 20260904194503 | 63 | 263 | 3.0 | 10.0 | 0.00 | 0.24 | 0.24 | 85 | 1014.0 |
| 20260904194003 | 64 | 270 | 4.0 | 9.0 | 0.00 | 0.24 | 0.24 | 85 | 1014.0 |
| 20260904193503 | 64 | 272 | 4.0 | 8.0 | 0.00 | 0.24 | 0.24 | 84 | 1014.0 |
| 20260904193003 | 64 | 273 | 4.0 | 12.0 | 0.00 | 0.24 | 0.24 | 84 | 1013.9 |
| 20260904192503 | 64 | 273 | 4.0 | 12.0 | 0.00 | 0.24 | 0.24 | 84 | 1013.9 |
| 20260904192003 | 64 | 278 | 5.0 | 14.0 | 0.00 | 0.24 | 0.24 | 84 | 1013.8 |
| 20260904191503 | 64 | 276 | 6.0 | 14.0 | 0.00 | 0.24 | 0.24 | 84 | 1013.8 |
| 20260904191003 | 64 | 273 | 5.0 | 11.0 | 0.00 | 0.24 | 0.24 | 84 | 1013.5 |
| 20260904190717 | 64 | 277 | 5.0 | 11.0 | 0.00 | 0.24 | 0.24 | 84 | 1013.6 |
| 20260904190003 | 64 | 280 | 5.0 | 13.0 | 0.00 | 0.24 | 0.24 | 83 | 1013.4 |
| 20260904185717 | 64 | 277 | 4.0 | 13.0 | 0.00 | 0.24 | 0.24 | 84 | 1013.3 |
| 20260904185216 | 64 | 283 | 5.0 | 13.0 | 0.00 | 0.24 | 0.24 | 84 | 1013.4 |
| 20260904184503 | 64 | 288 | 5.0 | 13.0 | 0.00 | 0.24 | 0.24 | 84 | 1013.3 |
| 20260904184003 | 64 | 282 | 6.0 | 14.0 | 0.00 | 0.24 | 0.24 | 84 | 1013.3 |
| 20260904183503 | 64 | 273 | 7.0 | 14.0 | 0.00 | 0.24 | 0.24 | 84 | 1013.2 |
| 20260904183218 | 64 | 264 | 7.0 | 14.0 | 0.00 | 0.24 | 0.24 | 84 | 1013.2 |
| 20260904182503 | 64 | 264 | 5.0 | 13.0 | 0.00 | 0.24 | 0.24 | 83 | 1013.0 |
| 20260904182003 | 64 | 267 | 5.0 | 13.0 | 0.00 | 0.24 | 0.24 | 84 | 1012.9 |
| 20260904181503 | 64 | 267 | 5.0 | 13.0 | 0.00 | 0.24 | 0.24 | 84 | 1012.9 |
| 20260904181218 | 65 | 267 | 5.0 | 10.0 | 0.00 | 0.24 | 0.24 | 84 | 1012.9 |
| 20260904180503 | 65 | 273 | 5.0 | 11.0 | 0.00 | 0.24 | 0.24 | 84 | 1012.7 |
| 20260904180003 | 65 | 270 | 6.0 | 13.0 | 0.00 | 0.24 | 0.24 | 83 | 1012.6 |
| 20260904175503 | 65 | 271 | 7.0 | 16.0 | 0.00 | 0.24 | 0.24 | 83 | 1012.6 |
| 20260904175003 | 65 | 274 | 7.0 | 16.0 | 0.00 | 0.24 | 0.24 | 83 | 1012.6 |
| 20260904174503 | 65 | 270 | 6.0 | 14.0 | 0.00 | 0.24 | 0.24 | 84 | 1012.3 |
| 20260904174003 | 65 | 261 | 5.0 | 11.0 | 0.00 | 0.24 | 0.24 | 84 | 1012.4 |
| 20260904173717 | 65 | 264 | 6.0 | 12.0 | 0.00 | 0.24 | 0.24 | 84 | 1012.2 |
| 20260904173218 | 65 | 266 | 5.0 | 12.0 | 0.00 | 0.24 | 0.24 | 85 | 1012.4 |
| 20260904172503 | 65 | 262 | 5.0 | 10.0 | 0.00 | 0.24 | 0.24 | 85 | 1012.4 |
| 20260904172003 | 65 | 260 | 5.0 | 12.0 | 0.00 | 0.24 | 0.24 | 85 | 1012.3 |
| 20260904171503 | 65 | 259 | 4.0 | 12.0 | 0.00 | 0.24 | 0.24 | 85 | 1012.2 |
| 20260904171003 | 65 | 268 | 5.0 | 14.0 | 0.00 | 0.24 | 0.24 | 85 | 1012.1 |
| 20260904170503 | 65 | 273 | 5.0 | 14.0 | 0.00 | 0.24 | 0.24 | 85 | 1011.9 |
| 20260904170003 | 66 | 271 | 4.0 | 13.0 | 0.00 | 0.24 | 0.24 | 85 | 1011.9 |
| 20260904165503 | 66 | 263 | 4.0 | 13.0 | 0.00 | 0.24 | 0.24 | 85 | 1012.0 |
| 20260904165218 | 66 | 274 | 5.0 | 13.0 | 0.00 | 0.24 | 0.24 | 85 | 1011.9 |
| 20260904164503 | 66 | 280 | 7.0 | 19.0 | 0.00 | 0.24 | 0.24 | 85 | 1012.0 |
| 20260904164003 | 66 | 269 | 7.0 | 19.0 | 0.00 | 0.24 | 0.24 | 85 | 1012.2 |
| 20260904163503 | 66 | 264 | 6.0 | 12.0 | 0.00 | 0.24 | 0.24 | 86 | 1012.0 |
| 20260904163217 | 66 | 270 | 6.0 | 12.0 | 0.00 | 0.24 | 0.24 | 85 | 1011.9 |
| 20260904162503 | 66 | 277 | 8.0 | 17.0 | 0.00 | 0.24 | 0.24 | 86 | 1011.5 |
| 20260904162003 | 66 | 269 | 7.0 | 17.0 | 0.00 | 0.24 | 0.24 | 86 | 1011.6 |
| 20260904161503 | 66 | 263 | 6.0 | 14.0 | 0.00 | 0.24 | 0.24 | 87 | 1011.6 |
| 20260904161217 | 66 | 260 | 5.0 | 14.0 | 0.00 | 0.24 | 0.24 | 88 | 1011.5 |
| 20260904160716 | 66 | 263 | 6.0 | 13.0 | 0.00 | 0.24 | 0.24 | 88 | 1011.4 |
| 20260904160003 | 66 | 271 | 6.0 | 13.0 | 0.00 | 0.24 | 0.24 | 88 | 1011.3 |
| 20260904155503 | 66 | 275 | 6.0 | 14.0 | 0.00 | 0.24 | 0.24 | 89 | 1011.3 |
| 20260904155003 | 66 | 272 | 6.0 | 14.0 | 0.00 | 0.24 | 0.24 | 89 | 1011.5 |
| 20260904154503 | 66 | 264 | 6.0 | 13.0 | 0.00 | 0.24 | 0.24 | 89 | 1011.4 |
| 20260904154003 | 66 | 267 | 7.0 | 19.0 | 0.00 | 0.24 | 0.24 | 89 | 1011.4 |
| 20260904153503 | 66 | 276 | 7.0 | 19.0 | 0.00 | 0.24 | 0.24 | 90 | 1011.4 |
| 20260904153003 | 66 | 278 | 7.0 | 18.0 | 0.00 | 0.24 | 0.24 | 90 | 1011.4 |
| 20260904152503 | 66 | 274 | 7.0 | 16.0 | 0.00 | 0.24 | 0.24 | 91 | 1011.6 |
| 20260904152003 | 66 | 265 | 6.0 | 13.0 | 0.00 | 0.24 | 0.24 | 91 | 1011.4 |
| 20260904151503 | 66 | 265 | 6.0 | 13.0 | 0.00 | 0.24 | 0.24 | 92 | 1011.2 |
| 20260904151003 | 65 | 271 | 7.0 | 18.0 | 0.01 | 0.24 | 0.24 | 92 | 1011.2 |
| 20260904150718 | 65 | 271 | 7.0 | 18.0 | 0.01 | 0.24 | 0.24 | 92 | 1011.2 |
| 20260904150003 | 65 | 274 | 6.0 | 13.0 | 0.01 | 0.24 | 0.24 | 92 | 1011.2 |
| 20260904145503 | 65 | 274 | 6.0 | 13.0 | 0.01 | 0.24 | 0.24 | 93 | 1011.2 |
| 20260904145003 | 65 | 275 | 7.0 | 20.0 | 0.01 | 0.24 | 0.24 | 93 | 1011.2 |
| 20260904144503 | 64 | 272 | 9.0 | 20.0 | 0.01 | 0.24 | 0.24 | 93 | 1011.0 |
| 20260904144003 | 64 | 271 | 9.0 | 18.0 | 0.02 | 0.24 | 0.24 | 93 | 1011.1 |
| 20260904143503 | 64 | 271 | 8.0 | 18.0 | 0.02 | 0.24 | 0.24 | 94 | 1011.0 |
| 20260904143003 | 64 | 264 | 7.0 | 18.0 | 0.02 | 0.24 | 0.24 | 95 | 1011.0 |
| 20260904142505 | 64 | 259 | 7.0 | 15.0 | 0.04 | 0.24 | 0.24 | 96 | 1010.8 |
| 20260904142003 | 64 | 254 | 7.0 | 15.0 | 0.04 | 0.24 | 0.24 | 96 | 1010.6 |
| 20260904141503 | 65 | 246 | 6.0 | 14.0 | 0.06 | 0.24 | 0.24 | 96 | 1010.4 |
| 20260904141003 | 65 | 246 | 6.0 | 14.0 | 0.05 | 0.24 | 0.24 | 96 | 1010.6 |
| 20260904140503 | 64 | 243 | 5.0 | 14.0 | 0.05 | 0.24 | 0.24 | 96 | 1010.5 |
| 20260904140216 | 64 | 244 | 4.0 | 14.0 | 0.06 | 0.24 | 0.24 | 96 | 1010.3 |
| 20260904135503 | 64 | 260 | 4.0 | 11.0 | 0.06 | 0.24 | 0.24 | 96 | 1010.1 |
| 20260904135003 | 64 | 266 | 5.0 | 13.0 | 0.06 | 0.24 | 0.24 | 96 | 1010.1 |
| 20260904134503 | 64 | 263 | 5.0 | 13.0 | 0.06 | 0.24 | 0.24 | 96 | 1010.2 |
| 20260904134003 | 64 | 253 | 5.0 | 14.0 | 0.06 | 0.23 | 0.23 | 96 | 1010.4 |
| 20260904133503 | 64 | 244 | 7.0 | 14.0 | 0.07 | 0.23 | 0.23 | 96 | 1010.1 |
| 20260904133003 | 64 | 241 | 7.0 | 14.0 | 0.08 | 0.22 | 0.22 | 96 | 1010.4 |
| 20260904132503 | 64 | 244 | 5.0 | 14.0 | 0.07 | 0.20 | 0.20 | 96 | 1010.3 |